Location: Unspecified
(44.4377°N, 88.0525°W)
Time: 23:24:45
(UTC-05:00)

Okean 3 - Visible Passes

Search period start: 01 September 2014 00:00
Search period end: 11 September 2014 00:00
Orbit: 583 x 610 km, 82.5° (Epoch: 01 September)

Date Brightness Start Highest point End Pass type
(mag) Time Alt. Az. Time Alt. Az. Time Alt. Az.
01 Sep 5.7 03:23:57 16° ESE 03:25:37 21° E 03:28:45 10° NE visible
01 Sep 4.2 05:00:40 21° SW 05:02:47 33° WNW 05:06:38 10° N visible
02 Sep 5.0 03:34:46 27° ESE 03:35:49 31° E 03:39:33 10° NNE visible
02 Sep 4.8 05:11:29 17° WSW 05:13:16 22° WNW 05:16:36 10° NNW visible
03 Sep 4.1 03:45:32 46° ESE 03:46:04 50° E 03:50:09 10° NNE visible
03 Sep 5.3 05:22:15 13° W 05:23:48 15° WNW 05:26:15 10° NNW visible
04 Sep 3.4 03:56:16 79° ESE 03:56:22 80° E 04:00:36 10° N visible
05 Sep 6.4 02:30:15 11° ENE 02:30:15 11° ENE 02:31:10 10° ENE visible
05 Sep 3.5 04:06:58 62° WNW 04:06:58 62° WNW 04:10:55 10° N visible
06 Sep 6.0 02:40:56 16° ENE 02:40:56 16° ENE 02:42:50 10° NE visible
06 Sep 4.1 04:17:38 38° WNW 04:17:38 38° WNW 04:21:06 10° N visible
07 Sep 5.7 02:51:34 22° ENE 02:51:34 22° ENE 02:53:46 10° NNE visible
07 Sep 4.8 04:28:16 25° NW 04:28:16 25° NW 04:31:09 10° NNW visible
08 Sep 5.4 03:02:11 27° NE 03:02:11 27° NE 03:04:26 10° NNE visible
08 Sep 5.3 04:38:53 17° NW 04:38:53 17° NW 04:40:57 10° NNW visible
09 Sep 5.3 03:12:46 29° NNE 03:12:46 29° NNE 03:14:55 10° NNE visible
09 Sep 5.7 04:49:28 11° NW 04:49:28 11° NW 04:50:10 10° NW visible
10 Sep 5.3 03:23:20 27° N 03:23:20 27° N 03:25:17 10° N visible
